Location: Table Mountain
(47.2500°N, 120.5778°W)
Time: 16:33:54
(UTC-08:00)

OTV 5 (USA 277) - Pass Details

Date: 11 October 2017
Orbit: 404 x 417 km, 43.0° (Epoch: 07 September)

Event Time Altitude Azimuth Distance (km) Brightness Sun altitude
Rises 20:35:02 0° 246° (WSW) 2,346 ? -23.3°
Reaches altitude 10° 20:37:15 10° 237° (WSW) 1,484 ? -23.7°
Enters shadow 20:38:34 20° 223° (SW) 1,024 ? -23.9°
